| time (UTC) | temp F | wind direction | speed MPH | gust MPH | rain 1hr in | rain 24hr in | rain mn in | humidity % | barometer mb |
| 20260506100023 | 44 | 243 | 0.0 | 3.0 | 0.00 | 0.00 | 0.00 | 38 | 1011.0 |
| 20260506094514 | 44 | 238 | 1.0 | 4.0 | 0.00 | 0.00 | 0.00 | 37 | 1011.0 |
| 20260506093010 | 45 | 287 | 0.0 | 3.0 | 0.00 | 0.00 | 0.00 | 37 | 1011.0 |
| 20260506091508 | 45 | 274 | 1.0 | 5.0 | 0.00 | 0.00 | 0.00 | 37 | 1011.0 |
| 20260506090004 | 45 | 276 | 1.0 | 4.0 | 0.00 | 0.00 | 0.00 | 36 | 1010.9 |
| 20260506084503 | 46 | 257 | 1.0 | 4.0 | 0.00 | 0.00 | 0.00 | 36 | 1010.9 |
| 20260506083058 | 45 | 246 | 1.0 | 4.0 | 0.00 | 0.00 | 0.00 | 36 | 1010.9 |
| 20260506081555 | 45 | 251 | 0.0 | 4.0 | 0.00 | 0.00 | 0.00 | 35 | 1010.9 |
| 20260506073041 | 45 | 233 | 0.0 | 3.0 | 0.00 | 0.00 | 0.00 | 34 | 1010.9 |
| 20260506071538 | 46 | 260 | 1.0 | 4.0 | 0.00 | 0.00 | 0.00 | 34 | 1010.8 |
| 20260506061524 | 47 | 266 | 0.0 | 4.0 | 0.00 | 0.00 | 0.00 | 32 | 1010.2 |
| 20260506044511 | 47 | 262 | 0.0 | 1.0 | 0.00 | 0.00 | 0.00 | 29 | 1009.9 |
| 20260506043003 | 48 | 243 | 0.0 | 2.0 | 0.00 | 0.00 | 0.00 | 29 | 1009.8 |
| 20260506041605 | 49 | 243 | 0.0 | 3.0 | 0.00 | 0.00 | 0.00 | 29 | 1009.5 |
| 20260506040107 | 49 | 246 | 1.0 | 3.0 | 0.00 | 0.00 | 0.00 | 28 | 1009.3 |
| 20260506034548 | 49 | 252 | 1.0 | 5.0 | 0.00 | 0.00 | 0.00 | 28 | 1009.0 |
| 20260506033043 | 50 | 264 | 1.0 | 7.0 | 0.00 | 0.00 | 0.00 | 28 | 1008.6 |
| 20260506031539 | 50 | 246 | 2.0 | 5.0 | 0.00 | 0.00 | 0.00 | 27 | 1008.3 |
| 20260506030055 | 50 | 242 | 1.0 | 7.0 | 0.00 | 0.00 | 0.00 | 27 | 1008.0 |
| 20260506024534 | 51 | 243 | 2.0 | 5.0 | 0.00 | 0.00 | 0.00 | 27 | 1007.8 |
| 20260506023027 | 51 | 276 | 2.0 | 8.0 | 0.00 | 0.00 | 0.00 | 26 | 1007.5 |
| 20260506021523 | 52 | 278 | 3.0 | 7.0 | 0.00 | 0.00 | 0.00 | 26 | 1007.1 |
| 20260506020021 | 53 | 269 | 5.0 | 10.0 | 0.00 | 0.00 | 0.00 | 26 | 1006.8 |
| 20260506014518 | 55 | 282 | 5.0 | 11.0 | 0.00 | 0.00 | 0.00 | 26 | 1006.6 |
| 20260506013016 | 56 | 248 | 3.0 | 13.0 | 0.00 | 0.00 | 0.00 | 26 | 1006.5 |
| 20260506011522 | 57 | 235 | 5.0 | 12.0 | 0.00 | 0.00 | 0.00 | 26 | 1006.3 |
| 20260506010013 | 57 | 290 | 5.0 | 13.0 | 0.00 | 0.00 | 0.00 | 26 | 1006.1 |
| 20260506004524 | 58 | 228 | 7.0 | 12.0 | 0.00 | 0.00 | 0.00 | 26 | 1005.9 |
| 20260506003009 | 59 | 283 | 6.0 | 16.0 | 0.00 | 0.00 | 0.00 | 25 | 1005.8 |
| 20260506001509 | 58 | 200 | 7.0 | 13.0 | 0.00 | 0.00 | 0.00 | 25 | 1005.7 |
| 20260506000007 | 60 | 274 | 7.0 | 12.0 | 0.00 | 0.00 | 0.00 | 25 | 1005.3 |
| 20260505234503 | 57 | 221 | 7.0 | 15.0 | 0.00 | 0.00 | 0.00 | 24 | 1005.2 |
| 20260505233133 | 61 | 319 | 6.0 | 16.0 | 0.00 | 0.00 | 0.00 | 25 | 1004.9 |
| 20260505231559 | 60 | 238 | 9.0 | 18.0 | 0.00 | 0.00 | 0.00 | 25 | 1004.8 |
| 20260505230057 | 61 | 237 | 9.0 | 21.0 | 0.00 | 0.00 | 0.00 | 25 | 1004.7 |
| 20260505224555 | 61 | 221 | 8.0 | 20.0 | 0.00 | 0.00 | 0.00 | 26 | 1004.7 |
| 20260505223052 | 62 | 284 | 7.0 | 15.0 | 0.00 | 0.00 | 0.00 | 27 | 1004.8 |
| 20260505221553 | 62 | 215 | 11.0 | 19.0 | 0.00 | 0.00 | 0.00 | 27 | 1005.0 |
| 20260505220046 | 62 | 248 | 6.0 | 17.0 | 0.00 | 0.00 | 0.00 | 28 | 1005.2 |
| 20260505214543 | 60 | 246 | 8.0 | 15.0 | 0.00 | 0.00 | 0.00 | 29 | 1005.2 |
| 20260505213046 | 60 | 210 | 9.0 | 17.0 | 0.00 | 0.00 | 0.00 | 30 | 1005.4 |
| 20260505211543 | 60 | 235 | 6.0 | 18.0 | 0.00 | 0.00 | 0.00 | 31 | 1005.5 |
| 20260505210034 | 60 | 193 | 6.0 | 15.0 | 0.00 | 0.00 | 0.00 | 31 | 1005.7 |
| 20260505204533 | 60 | 251 | 6.0 | 16.0 | 0.00 | 0.00 | 0.00 | 31 | 1005.9 |
| 20260505203034 | 59 | 283 | 8.0 | 17.0 | 0.00 | 0.00 | 0.00 | 31 | 1006.0 |
| 20260505201533 | 59 | 203 | 6.0 | 16.0 | 0.00 | 0.00 | 0.00 | 32 | 1006.0 |
| 20260505200025 | 60 | 245 | 6.0 | 16.0 | 0.00 | 0.00 | 0.00 | 32 | 1006.0 |
| 20260505194523 | 58 | 236 | 7.0 | 16.0 | 0.00 | 0.00 | 0.00 | 33 | 1006.0 |
| 20260505193020 | 57 | 257 | 6.0 | 19.0 | 0.00 | 0.00 | 0.00 | 33 | 1006.3 |
| 20260505191518 | 58 | 210 | 5.0 | 17.0 | 0.00 | 0.00 | 0.00 | 34 | 1006.1 |
| 20260505190028 | 58 | 233 | 8.0 | 20.0 | 0.00 | 0.00 | 0.00 | 34 | 1006.2 |
| 20260505184523 | 58 | 240 | 9.0 | 18.0 | 0.00 | 0.00 | 0.00 | 34 | 1006.0 |
| 20260505183017 | 60 | 217 | 5.0 | 10.0 | 0.00 | 0.00 | 0.00 | 35 | 1006.0 |
| 20260505181511 | 61 | 207 | 7.0 | 15.0 | 0.00 | 0.00 | 0.00 | 36 | 1006.1 |
| 20260505180008 | 58 | 221 | 5.0 | 12.0 | 0.00 | 0.00 | 0.00 | 36 | 1006.2 |
| 20260505174505 | 58 | 235 | 7.0 | 16.0 | 0.00 | 0.00 | 0.00 | 38 | 1006.1 |
| 20260505173001 | 59 | 141 | 3.0 | 12.0 | 0.00 | 0.00 | 0.00 | 39 | 1006.1 |
| 20260505171559 | 58 | 213 | 4.0 | 17.0 | 0.00 | 0.00 | 0.00 | 40 | 1005.9 |
| 20260505170055 | 56 | 231 | 6.0 | 14.0 | 0.00 | 0.00 | 0.00 | 40 | 1006.1 |
| 20260505164551 | 54 | 224 | 4.0 | 8.0 | 0.00 | 0.00 | 0.00 | 40 | 1006.1 |
| 20260505163049 | 53 | 252 | 2.0 | 11.0 | 0.00 | 0.00 | 0.00 | 40 | 1006.2 |
| 20260505161548 | 52 | 243 | 1.0 | 5.0 | 0.00 | 0.00 | 0.00 | 40 | 1006.3 |
| 20260505153046 | 56 | 199 | 4.0 | 12.0 | 0.00 | 0.00 | 0.00 | 42 | 1006.3 |
| 20260505151539 | 55 | 110 | 4.0 | 9.0 | 0.00 | 0.00 | 0.00 | 43 | 1006.3 |
| 20260505124502 | 42 | 253 | 0.0 | 1.0 | 0.00 | 0.00 | 0.00 | 44 | 1005.6 |
| 20260505123113 | 43 | 253 | 0.0 | 0.0 | 0.00 | 0.00 | 0.00 | 44 | 1005.7 |
| 20260505121554 | 44 | 253 | 0.0 | 1.0 | 0.00 | 0.00 | 0.00 | 43 | 1005.5 |
| 20260505120100 | 44 | 253 | 0.0 | 1.0 | 0.00 | 0.00 | 0.00 | 43 | 1005.4 |
| 20260505114550 | 44 | 253 | 0.0 | 0.0 | 0.00 | 0.00 | 0.00 | 42 | 1005.5 |
| 20260505113051 | 43 | 253 | 0.0 | 0.0 | 0.00 | 0.00 | 0.00 | 41 | 1005.6 |
| 20260505111544 | 44 | 253 | 0.0 | 2.0 | 0.00 | 0.00 | 0.00 | 41 | 1005.5 |
| 20260505101530 | 46 | 214 | 1.0 | 3.0 | 0.00 | 0.00 | 0.00 | 39 | 1006.1 |